Miscellaneous Local Product
Issued by NWS North Platte, NE

Home | Current Version | Previous Version | Text Only | Print | Product List | Glossary On
Versions: 1 2 3 4 5 6 7 8 9 10 11 12 13 14 15 16 17 18 19 20 21 22 23 24 25 26 27 28 29 30 31 32 33 34 35 36 37 38 39 40 41 42 43 44 45 46 47 48 49 50
000
AXUS43 KLBF 311710
MISLBF


WESTERN AND NORTH CENTRAL NEBRASKA HOURLY WEATHER ROUNDUP
NATIONAL WEATHER SERVICE NORTH PLATTE NE
1200 PM CDT MON AUG 31 2015

NOTE: "FAIR" INDICATES FEW OR NO CLOUDS BELOW 12,000 FEET WITH NO
SIGNIFICANT WEATHER AND/OR OBSTRUCTIONS TO VISIBILITY.

NOTE: STATIONS NOT REPORTING VARIABLES SUCH AS SKY/WEATHER OR
PRESSURE ARE PROVIDED BY THE NEBRASKA DEPARTMENT OF
ROADS...RAWS...AND APRS NETWORKS...AND ARE NOT UNDER
NATIONAL WEATHER SERVICE QUALITY CONTROL.

...OBSERVATIONS IN AND NEAR THE EASTERN PANHANDLE OF NEBRASKA...

CITY           SKY/WX    TMP DP  RH WIND       PRES   REMARKS
PINE RIDGE     CLOUDY    68  53  58 VRB6      30.02R
CHADRON        CLOUDY    74  54  49 N14       30.00R HAZE
ALLIANCE       CLOUDY    81  52  36 N6        30.02R
SIDNEY         CLOUDY    80  51  36 N10       30.06R
CRESCENT LAKE    N/A     78  54  42 N6          N/A
BIG SPRINGS      N/A     86  53  32 N5          N/A
$$

...OBSERVATIONS IN NORTH CENTRAL NEBRASKA...

CITY           SKY/WX    TMP DP  RH WIND       PRES   REMARKS
VALENTINE      MOSUNNY   87  55  33 N14       29.91R
THEDFORD       SUNNY     86  55  34 NW3       29.96S
AINSWORTH      MOSUNNY   85  53  32 NW5       29.91F
O`NEILL        SUNNY     81  65  57 SW13      29.92S
ORD            SUNNY     81  64  56 S10       29.93R
BROKEN BOW     SUNNY     81  63  54 SW9       29.95S
SPRINGVIEW       N/A     84  59  42 W3          N/A
SARGENT          N/A     80  65  59 SW3G12      N/A
CHAMBERS         N/A     82  64  54 S10         N/A
EWING            N/A     78  68  70 SW7         N/A
$$

...OBSERVATIONS IN SOUTHWEST NEBRASKA AND FAR NORTHEAST COLORADO...

CITY           SKY/WX    TMP DP  RH WIND       PRES   REMARKS
WRAY           FAIR      92  46  20 N21G29    29.99S
HOLYOKE        FAIR      91  48  22 N16G26    30.00S
IMPERIAL       SUNNY     85  54  34 NE8       29.97S
OGALLALA       MOSUNNY   85  52  32 NE7       29.97S
NORTH PLATTE   SUNNY     79  58  48 VRB3      29.95S
MCCOOK         SUNNY     80  59  48 SE7       29.94F
LEXINGTON      SUNNY     83  62  49 S13       29.94F
PAXTON           N/A     81  59  46 CALM        N/A
BRADY            N/A     77  63  61 CALM        N/A
CALLAWAY         N/A     80  67  64 S5          N/A
$$

...OBSERVATIONS IN CENTRAL LINCOLN COUNTY AREA...

CITY           SKY/WX    TMP DP  RH WIND       PRES   REMARKS
N.P. AIRPORT   SUNNY     79  58  48 VRB3      29.95S
N.P. DOWNTOWN    N/A     80  59  48 CALM        N/A
N.P. SOUTHEAST   N/A     81  58  45 W3          N/A
N.P. HILLCREST   N/A     78  58  50 NW6         N/A
$$

...SOME OBSERVATIONS FROM AROUND THE REGION...

CITY           SKY/WX    TMP DP  RH WIND       PRES   REMARKS
DENVER         CLOUDY    78  48  34 E10       30.14R
LARAMIE        PTSUNNY   71  46  40 SW7       30.25R
CHEYENNE       PTSUNNY   78  45  30 VRB7      30.17R
SCOTTSBLUFF    CLOUDY    81  55  40 W5        30.03R
RAPID CITY     CLOUDY    69  54  58 N17G23    30.01R
PIERRE         CLOUDY    77  60  55 N15G24    29.86R
WINNER         FAIR      86  58  38 NW18      29.87R
SIOUX FALLS    MOSUNNY   77  68  73 S18       29.91R
OMAHA          MOSUNNY   80  70  71 S8        29.97S
GRAND ISLAND   SUNNY     80  67  64 S14       29.95F
KANSAS CITY    MOSUNNY   85  71  63 S8        30.00S HX  90
WICHITA        MOSUNNY   84  68  58 S9        29.97S
HAYS           SUNNY     88  61  40 S16G23    29.94S
LIBERAL        SUNNY     90  55  31 S16G24    29.99S
GOODLAND       SUNNY     87  53  31 N9        29.98S
$$



USA.gov is the U.S. government's official web portal to all federal, state and local government web resources and services.